| time (UTC) | temp C | wind direction | speed KPH | gust KPH | rain 1hr cm | rain 24hr cm | rain mn cm | humidity % | barometer mb |
| 20260905205147 | 38 | 323 | 9.7 | 16.1 | 0.00 | 0.00 | 0.00 | 40 | 1009.6 |
| 20260905204647 | 38 | 348 | 9.7 | 20.9 | 0.00 | 0.00 | 0.00 | 40 | 1009.8 |
| 20260905204147 | 38 | 11 | 8.0 | 19.3 | 0.00 | 0.00 | 0.00 | 41 | 1009.7 |
| 20260905203647 | 38 | 342 | 6.4 | 12.9 | 0.00 | 0.00 | 0.00 | 41 | 1009.7 |
| 20260905203147 | 38 | 324 | 4.8 | 12.9 | 0.00 | 0.00 | 0.00 | 42 | 1009.8 |
| 20260905202647 | 38 | 303 | 4.8 | 11.3 | 0.00 | 0.00 | 0.00 | 41 | 1009.8 |
| 20260905202147 | 38 | 346 | 4.8 | 9.7 | 0.00 | 0.00 | 0.00 | 41 | 1009.9 |
| 20260905201647 | 38 | 317 | 4.8 | 12.9 | 0.00 | 0.00 | 0.00 | 41 | 1010.0 |
| 20260905201147 | 37 | 62 | 4.8 | 9.7 | 0.00 | 0.00 | 0.00 | 41 | 1010.0 |
| 20260905200647 | 37 | 296 | 4.8 | 9.7 | 0.00 | 0.00 | 0.00 | 44 | 1010.2 |
| 20260905200147 | 37 | 13 | 4.8 | 14.5 | 0.00 | 0.00 | 0.00 | 43 | 1010.2 |
| 20260905195647 | 37 | 317 | 6.4 | 12.9 | 0.00 | 0.00 | 0.00 | 41 | 1010.2 |
| 20260905195147 | 37 | 15 | 4.8 | 9.7 | 0.00 | 0.00 | 0.00 | 44 | 1010.2 |
| 20260905194647 | 37 | 331 | 4.8 | 12.9 | 0.00 | 0.00 | 0.00 | 41 | 1010.2 |
| 20260905194147 | 37 | 353 | 3.2 | 11.3 | 0.00 | 0.00 | 0.00 | 43 | 1010.3 |
| 20260905193647 | 37 | 340 | 4.8 | 6.4 | 0.00 | 0.00 | 0.00 | 43 | 1010.4 |
| 20260905193147 | 37 | 279 | 4.8 | 11.3 | 0.00 | 0.00 | 0.00 | 43 | 1010.5 |
| 20260905192647 | 37 | 301 | 4.8 | 9.7 | 0.00 | 0.00 | 0.00 | 43 | 1010.6 |
| 20260905192147 | 37 | 1 | 4.8 | 8.0 | 0.00 | 0.00 | 0.00 | 46 | 1010.6 |
| 20260905191647 | 37 | 53 | 4.8 | 9.7 | 0.00 | 0.00 | 0.00 | 45 | 1010.6 |
| 20260905191147 | 37 | 1 | 3.2 | 6.4 | 0.00 | 0.00 | 0.00 | 45 | 1010.6 |
| 20260905190647 | 38 | 68 | 4.8 | 11.3 | 0.00 | 0.00 | 0.00 | 44 | 1010.6 |
| 20260905190147 | 38 | 347 | 4.8 | 12.9 | 0.00 | 0.00 | 0.00 | 41 | 1010.7 |
| 20260905185647 | 37 | 300 | 4.8 | 9.7 | 0.00 | 0.00 | 0.00 | 42 | 1010.9 |
| 20260905185147 | 36 | 241 | 4.8 | 9.7 | 0.00 | 0.00 | 0.00 | 44 | 1011.0 |
| 20260905184647 | 36 | 13 | 6.4 | 9.7 | 0.00 | 0.00 | 0.00 | 44 | 1011.1 |
| 20260905184147 | 36 | 121 | 6.4 | 14.5 | 0.00 | 0.00 | 0.00 | 43 | 1011.2 |
| 20260905183647 | 37 | 341 | 4.8 | 12.9 | 0.00 | 0.00 | 0.00 | 43 | 1011.3 |
| 20260905183147 | 37 | 56 | 4.8 | 9.7 | 0.00 | 0.00 | 0.00 | 45 | 1011.2 |
| 20260905182647 | 37 | 305 | 4.8 | 11.3 | 0.00 | 0.00 | 0.00 | 45 | 1011.2 |
| 20260905182147 | 37 | 1 | 6.4 | 11.3 | 0.00 | 0.00 | 0.00 | 44 | 1011.3 |
| 20260905181647 | 37 | 58 | 8.0 | 19.3 | 0.00 | 0.00 | 0.00 | 46 | 1011.5 |
| 20260905181147 | 37 | 46 | 8.0 | 16.1 | 0.00 | 0.00 | 0.00 | 45 | 1011.4 |
| 20260905180647 | 37 | 329 | 6.4 | 14.5 | 0.00 | 0.00 | 0.00 | 44 | 1011.5 |
| 20260905180147 | 37 | 269 | 4.8 | 14.5 | 0.00 | 0.00 | 0.00 | 44 | 1011.5 |
| 20260905175647 | 37 | 20 | 4.8 | 8.0 | 0.00 | 0.00 | 0.00 | 46 | 1011.5 |
| 20260905175147 | 37 | 324 | 6.4 | 14.5 | 0.00 | 0.00 | 0.00 | 45 | 1011.5 |
| 20260905174647 | 37 | 336 | 6.4 | 12.9 | 0.00 | 0.00 | 0.00 | 45 | 1011.5 |
| 20260905174147 | 36 | 347 | 6.4 | 19.3 | 0.00 | 0.00 | 0.00 | 45 | 1011.7 |
| 20260905173647 | 36 | 321 | 8.0 | 19.3 | 0.00 | 0.00 | 0.00 | 48 | 1011.7 |
| 20260905173147 | 36 | 203 | 6.4 | 16.1 | 0.00 | 0.00 | 0.00 | 47 | 1011.8 |
| 20260905172647 | 36 | 319 | 4.8 | 14.5 | 0.00 | 0.00 | 0.00 | 48 | 1011.9 |
| 20260905172147 | 36 | 53 | 4.8 | 12.9 | 0.00 | 0.00 | 0.00 | 48 | 1011.9 |
| 20260905171647 | 36 | 56 | 6.4 | 12.9 | 0.00 | 0.00 | 0.00 | 51 | 1012.0 |
| 20260905171147 | 36 | 354 | 4.8 | 16.1 | 0.00 | 0.00 | 0.00 | 47 | 1012.1 |
| 20260905170647 | 36 | 341 | 3.2 | 14.5 | 0.00 | 0.00 | 0.00 | 52 | 1012.2 |
| 20260905170147 | 36 | 283 | 4.8 | 12.9 | 0.00 | 0.00 | 0.00 | 50 | 1012.2 |
| 20260905165647 | 36 | 65 | 4.8 | 12.9 | 0.00 | 0.00 | 0.00 | 50 | 1012.3 |
| 20260905165147 | 36 | 269 | 4.8 | 6.4 | 0.00 | 0.00 | 0.00 | 51 | 1012.3 |
| 20260905164647 | 36 | 342 | 4.8 | 8.0 | 0.00 | 0.00 | 0.00 | 49 | 1012.4 |
| 20260905164147 | 36 | 343 | 4.8 | 11.3 | 0.00 | 0.00 | 0.00 | 51 | 1012.4 |
| 20260905163647 | 35 | 324 | 4.8 | 14.5 | 0.00 | 0.00 | 0.00 | 52 | 1012.4 |
| 20260905163147 | 35 | 15 | 4.8 | 8.0 | 0.00 | 0.00 | 0.00 | 52 | 1012.4 |
| 20260905162647 | 35 | 163 | 4.8 | 11.3 | 0.00 | 0.00 | 0.00 | 52 | 1012.5 |
| 20260905162147 | 35 | 351 | 3.2 | 9.7 | 0.00 | 0.00 | 0.00 | 54 | 1012.7 |
| 20260905161647 | 35 | 56 | 4.8 | 8.0 | 0.00 | 0.00 | 0.00 | 53 | 1012.8 |
| 20260905161147 | 35 | 319 | 4.8 | 12.9 | 0.00 | 0.00 | 0.00 | 54 | 1012.9 |
| 20260905160647 | 35 | 343 | 3.2 | 14.5 | 0.00 | 0.00 | 0.00 | 54 | 1013.0 |
| 20260905160147 | 35 | 334 | 4.8 | 9.7 | 0.00 | 0.00 | 0.00 | 53 | 1013.1 |
| 20260905155647 | 35 | 316 | 6.4 | 16.1 | 0.00 | 0.00 | 0.00 | 54 | 1013.2 |
| 20260905155147 | 35 | 353 | 4.8 | 9.7 | 0.00 | 0.00 | 0.00 | 54 | 1013.0 |
| 20260905154647 | 35 | 318 | 4.8 | 8.0 | 0.00 | 0.00 | 0.00 | 54 | 1013.1 |
| 20260905154147 | 35 | 1 | 4.8 | 12.9 | 0.00 | 0.00 | 0.00 | 54 | 1013.2 |
| 20260905153647 | 35 | 323 | 3.2 | 12.9 | 0.00 | 0.00 | 0.00 | 53 | 1013.2 |
| 20260905153147 | 34 | 331 | 4.8 | 9.7 | 0.00 | 0.00 | 0.00 | 55 | 1013.1 |
| 20260905152647 | 34 | 295 | 3.2 | 9.7 | 0.00 | 0.00 | 0.00 | 56 | 1013.0 |
| 20260905152147 | 33 | 324 | 4.8 | 11.3 | 0.00 | 0.00 | 0.00 | 55 | 1012.9 |
| 20260905151647 | 33 | 329 | 4.8 | 9.7 | 0.00 | 0.00 | 0.00 | 56 | 1012.9 |
| 20260905151147 | 33 | 8 | 4.8 | 11.3 | 0.00 | 0.00 | 0.00 | 56 | 1013.0 |
| 20260905150647 | 33 | 89 | 4.8 | 11.3 | 0.00 | 0.00 | 0.00 | 58 | 1013.0 |
| 20260905150147 | 33 | 293 | 4.8 | 8.0 | 0.00 | 0.00 | 0.00 | 59 | 1013.1 |
| 20260905145647 | 32 | 193 | 4.8 | 9.7 | 0.00 | 0.00 | 0.00 | 58 | 1013.1 |
| 20260905145147 | 32 | 318 | 3.2 | 11.3 | 0.00 | 0.00 | 0.00 | 58 | 1013.2 |
| 20260905144647 | 32 | 20 | 4.8 | 9.7 | 0.00 | 0.00 | 0.00 | 59 | 1013.1 |
| 20260905144147 | 32 | 336 | 3.2 | 8.0 | 0.00 | 0.00 | 0.00 | 59 | 1013.2 |
| 20260905143647 | 32 | 344 | 4.8 | 8.0 | 0.00 | 0.00 | 0.00 | 61 | 1013.1 |
| 20260905143147 | 31 | 315 | 4.8 | 9.7 | 0.00 | 0.00 | 0.00 | 62 | 1013.1 |
| 20260905142647 | 31 | 304 | 4.8 | 11.3 | 0.00 | 0.00 | 0.00 | 62 | 1013.1 |
| 20260905142147 | 31 | 353 | 4.8 | 11.3 | 0.00 | 0.00 | 0.00 | 62 | 1013.1 |
| 20260905141647 | 31 | 27 | 3.2 | 8.0 | 0.00 | 0.00 | 0.00 | 63 | 1013.1 |
| 20260905141147 | 30 | 306 | 3.2 | 9.7 | 0.00 | 0.00 | 0.00 | 65 | 1013.0 |
| 20260905140647 | 30 | 295 | 3.2 | 4.8 | 0.00 | 0.00 | 0.00 | 66 | 1013.0 |
| 20260905140147 | 30 | 269 | 3.2 | 6.4 | 0.00 | 0.00 | 0.00 | 68 | 1013.0 |
| 20260905135647 | 30 | 314 | 3.2 | 6.4 | 0.00 | 0.00 | 0.00 | 68 | 1013.1 |
| 20260905135147 | 30 | 353 | 3.2 | 6.4 | 0.00 | 0.00 | 0.00 | 68 | 1013.1 |
| 20260905134647 | 29 | 223 | 1.6 | 4.8 | 0.00 | 0.00 | 0.00 | 72 | 1013.2 |
| 20260905134147 | 28 | 216 | 1.6 | 3.2 | 0.00 | 0.00 | 0.00 | 73 | 1013.2 |
| 20260905133647 | 28 | 178 | 1.6 | 3.2 | 0.00 | 0.00 | 0.00 | 73 | 1013.2 |
| 20260905133147 | 28 | 89 | 1.6 | 4.8 | 0.00 | 0.00 | 0.00 | 72 | 1013.3 |
| 20260905132647 | 28 | 178 | 1.6 | 4.8 | 0.00 | 0.00 | 0.00 | 74 | 1013.4 |
| 20260905132147 | 27 | 223 | 1.6 | 3.2 | 0.00 | 0.00 | 0.00 | 75 | 1013.3 |
| 20260905131647 | 27 | 223 | 1.6 | 3.2 | 0.00 | 0.00 | 0.00 | 77 | 1013.4 |
| 20260905131147 | 27 | 223 | 1.6 | 3.2 | 0.00 | 0.00 | 0.00 | 79 | 1013.4 |
| 20260905130647 | 27 | 213 | 3.2 | 3.2 | 0.00 | 0.00 | 0.00 | 79 | 1013.4 |
| 20260905130147 | 26 | 156 | 3.2 | 4.8 | 0.00 | 0.00 | 0.00 | 80 | 1013.4 |
| 20260905125647 | 26 | 72 | 3.2 | 4.8 | 0.00 | 0.00 | 0.00 | 81 | 1013.4 |
| 20260905125147 | 26 | 117 | 3.2 | 6.4 | 0.00 | 0.00 | 0.00 | 82 | 1013.4 |
| 20260905124647 | 26 | 102 | 3.2 | 6.4 | 0.00 | 0.00 | 0.00 | 83 | 1013.5 |
| 20260905124147 | 26 | 79 | 3.2 | 4.8 | 0.00 | 0.00 | 0.00 | 84 | 1013.5 |
| 20260905123647 | 25 | 105 | 3.2 | 6.4 | 0.00 | 0.00 | 0.00 | 84 | 1013.5 |
| 20260905123147 | 25 | 89 | 3.2 | 6.4 | 0.00 | 0.00 | 0.00 | 85 | 1013.6 |
| 20260905122647 | 25 | 79 | 3.2 | 6.4 | 0.00 | 0.00 | 0.00 | 85 | 1013.5 |
| 20260905122147 | 25 | 76 | 3.2 | 4.8 | 0.00 | 0.00 | 0.00 | 85 | 1013.5 |
| 20260905121647 | 25 | 68 | 3.2 | 4.8 | 0.00 | 0.00 | 0.00 | 86 | 1013.4 |
| 20260905121147 | 25 | 81 | 3.2 | 6.4 | 0.00 | 0.00 | 0.00 | 86 | 1013.3 |
| 20260905120647 | 25 | 102 | 3.2 | 6.4 | 0.00 | 0.00 | 0.00 | 85 | 1013.3 |
| 20260905120147 | 25 | 105 | 1.6 | 4.8 | 0.00 | 0.00 | 0.00 | 84 | 1013.2 |
| 20260905115647 | 25 | 89 | 1.6 | 3.2 | 0.00 | 0.00 | 0.00 | 85 | 1013.1 |
| 20260905115147 | 25 | 145 | 1.6 | 3.2 | 0.00 | 0.00 | 0.00 | 85 | 1013.0 |
| 20260905114647 | 25 | 178 | 1.6 | 3.2 | 0.00 | 0.00 | 0.00 | 85 | 1013.0 |
| 20260905114147 | 25 | 46 | 1.6 | 1.6 | 0.00 | 0.00 | 0.00 | 85 | 1013.0 |
| 20260905113647 | 25 | 269 | 1.6 | 3.2 | 0.00 | 0.00 | 0.00 | 84 | 1013.0 |
| 20260905113148 | 25 | 46 | 1.6 | 3.2 | 0.00 | 0.00 | 0.00 | 86 | 1012.9 |
| 20260905112648 | 25 | 46 | 0.0 | 1.6 | 0.00 | 0.00 | 0.00 | 86 | 1012.9 |
| 20260905112147 | 24 | 46 | 0.0 | 3.2 | 0.00 | 0.00 | 0.00 | 87 | 1012.8 |
| 20260905111648 | 24 | 1 | 0.0 | 1.6 | 0.00 | 0.00 | 0.00 | 88 | 1012.8 |
| 20260905111148 | 24 | 46 | 1.6 | 3.2 | 0.00 | 0.00 | 0.00 | 88 | 1012.7 |
| 20260905110647 | 24 | 46 | 1.6 | 3.2 | 0.00 | 0.00 | 0.00 | 88 | 1012.7 |
| 20260905110148 | 24 | 269 | 0.0 | 1.6 | 0.00 | 0.00 | 0.00 | 88 | 1012.7 |
| 20260905105648 | 24 | 63 | 0.0 | 1.6 | 0.00 | 0.00 | 0.00 | 88 | 1012.6 |
| 20260905105148 | 24 | 46 | 0.0 | 1.6 | 0.00 | 0.00 | 0.00 | 88 | 1012.5 |
| 20260905104648 | 24 | 46 | 1.6 | 3.2 | 0.00 | 0.00 | 0.00 | 87 | 1012.5 |
| 20260905104148 | 25 | 72 | 1.6 | 3.2 | 0.00 | 0.00 | 0.00 | 87 | 1012.5 |
| 20260905103648 | 24 | 46 | 1.6 | 3.2 | 0.00 | 0.00 | 0.00 | 88 | 1012.4 |
| 20260905103148 | 24 | 314 | 1.6 | 3.2 | 0.00 | 0.00 | 0.00 | 88 | 1012.4 |
| 20260905102648 | 24 | 295 | 1.6 | 3.2 | 0.00 | 0.00 | 0.00 | 87 | 1012.5 |
| 20260905102148 | 24 | 135 | 1.6 | 3.2 | 0.00 | 0.00 | 0.00 | 87 | 1012.6 |
| 20260905101648 | 25 | 178 | 1.6 | 3.2 | 0.00 | 0.00 | 0.00 | 87 | 1012.6 |
| 20260905101148 | 24 | 46 | 1.6 | 1.6 | 0.00 | 0.00 | 0.00 | 87 | 1012.6 |
| 20260905100648 | 25 | 46 | 1.6 | 3.2 | 0.00 | 0.00 | 0.00 | 86 | 1012.5 |
| 20260905100148 | 25 | 269 | 1.6 | 3.2 | 0.00 | 0.00 | 0.00 | 86 | 1012.5 |
| 20260905095648 | 25 | 89 | 1.6 | 3.2 | 0.00 | 0.00 | 0.00 | 86 | 1012.5 |
| 20260905095148 | 25 | 117 | 1.6 | 3.2 | 0.00 | 0.00 | 0.00 | 85 | 1012.4 |
| 20260905094648 | 25 | 178 | 1.6 | 3.2 | 0.00 | 0.00 | 0.00 | 86 | 1012.4 |
| 20260905094148 | 25 | 135 | 1.6 | 3.2 | 0.00 | 0.00 | 0.00 | 86 | 1012.4 |
| 20260905093648 | 25 | 72 | 1.6 | 3.2 | 0.00 | 0.00 | 0.00 | 87 | 1012.4 |
| 20260905093148 | 25 | 135 | 1.6 | 3.2 | 0.00 | 0.00 | 0.00 | 86 | 1012.3 |
| 20260905092648 | 25 | 178 | 1.6 | 3.2 | 0.00 | 0.00 | 0.00 | 85 | 1012.2 |
| 20260905092148 | 25 | 135 | 1.6 | 3.2 | 0.00 | 0.00 | 0.00 | 85 | 1012.2 |
| 20260905091648 | 25 | 269 | 1.6 | 3.2 | 0.00 | 0.00 | 0.00 | 84 | 1012.2 |
| 20260905091148 | 25 | 63 | 0.0 | 3.2 | 0.00 | 0.00 | 0.00 | 84 | 1012.1 |
| 20260905090648 | 25 | 46 | 0.0 | 1.6 | 0.00 | 0.00 | 0.00 | 84 | 1012.1 |
| 20260905090148 | 25 | 46 | 0.0 | 1.6 | 0.00 | 0.00 | 0.00 | 83 | 1012.0 |
| 20260905085648 | 25 | 1 | 1.6 | 3.2 | 0.00 | 0.00 | 0.00 | 83 | 1012.0 |
| 20260905085148 | 25 | 32 | 0.0 | 3.2 | 0.00 | 0.00 | 0.00 | 83 | 1011.9 |
| 20260905084648 | 25 | 1 | 0.0 | 3.2 | 0.00 | 0.00 | 0.00 | 83 | 1011.9 |
| 20260905084148 | 25 | 1 | 0.0 | 3.2 | 0.00 | 0.00 | 0.00 | 85 | 1011.9 |
| 20260905083648 | 25 | 178 | 0.0 | 1.6 | 0.00 | 0.00 | 0.00 | 85 | 1011.9 |
| 20260905083148 | 25 | 46 | 0.0 | 1.6 | 0.00 | 0.00 | 0.00 | 85 | 1011.9 |
| 20260905082648 | 25 | 135 | 0.0 | 1.6 | 0.00 | 0.00 | 0.00 | 85 | 1011.9 |
| 20260905082148 | 25 | 178 | 0.0 | 1.6 | 0.00 | 0.00 | 0.00 | 84 | 1012.0 |
| 20260905081648 | 25 | 117 | 0.0 | 1.6 | 0.00 | 0.00 | 0.00 | 84 | 1012.0 |
| 20260905081148 | 25 | 178 | 0.0 | 1.6 | 0.00 | 0.00 | 0.00 | 84 | 1012.0 |
| 20260905080648 | 25 | 46 | 0.0 | 3.2 | 0.00 | 0.00 | 0.00 | 84 | 1012.0 |
| 20260905080148 | 25 | 135 | 1.6 | 3.2 | 0.00 | 0.00 | 0.00 | 85 | 1012.1 |
| 20260905075648 | 25 | 89 | 0.0 | 1.6 | 0.00 | 0.00 | 0.00 | 85 | 1012.1 |
| 20260905075148 | 25 | 178 | 0.0 | 1.6 | 0.00 | 0.00 | 0.00 | 85 | 1012.1 |
| 20260905074648 | 25 | 46 | 0.0 | 1.6 | 0.00 | 0.00 | 0.00 | 85 | 1012.1 |
| 20260905074148 | 25 | 314 | 0.0 | 3.2 | 0.00 | 0.00 | 0.00 | 85 | 1012.1 |
| 20260905073648 | 25 | 63 | 0.0 | 1.6 | 0.00 | 0.00 | 0.00 | 86 | 1012.2 |
| 20260905073148 | 25 | 46 | 0.0 | 1.6 | 0.00 | 0.00 | 0.00 | 85 | 1012.3 |
| 20260905072648 | 25 | 117 | 0.0 | 1.6 | 0.00 | 0.00 | 0.00 | 86 | 1012.4 |
| 20260905072148 | 25 | 89 | 1.6 | 1.6 | 0.00 | 0.00 | 0.00 | 86 | 1012.4 |
| 20260905071648 | 25 | 223 | 1.6 | 3.2 | 0.00 | 0.00 | 0.00 | 86 | 1012.4 |
| 20260905071148 | 25 | 178 | 1.6 | 3.2 | 0.00 | 0.00 | 0.00 | 86 | 1012.4 |
| 20260905070648 | 26 | 223 | 1.6 | 3.2 | 0.00 | 0.00 | 0.00 | 85 | 1012.4 |
| 20260905070149 | 26 | 223 | 1.6 | 3.2 | 0.00 | 0.00 | 0.00 | 85 | 1012.4 |
| 20260905065648 | 26 | 178 | 1.6 | 3.2 | 0.00 | 0.00 | 0.00 | 84 | 1012.4 |
| 20260905065148 | 26 | 206 | 1.6 | 3.2 | 0.00 | 0.00 | 0.00 | 83 | 1012.4 |
| 20260905064648 | 26 | 46 | 1.6 | 3.2 | 0.00 | 0.00 | 0.00 | 83 | 1012.5 |
| 20260905064148 | 26 | 89 | 1.6 | 1.6 | 0.00 | 0.00 | 0.00 | 82 | 1012.4 |
| 20260905063648 | 26 | 314 | 1.6 | 3.2 | 0.00 | 0.00 | 0.00 | 82 | 1012.5 |
| 20260905063148 | 26 | 117 | 1.6 | 3.2 | 0.00 | 0.00 | 0.00 | 82 | 1012.5 |
| 20260905062648 | 26 | 89 | 1.6 | 3.2 | 0.00 | 0.00 | 0.00 | 82 | 1012.6 |
| 20260905062148 | 26 | 135 | 1.6 | 3.2 | 0.00 | 0.00 | 0.00 | 82 | 1012.6 |
| 20260905061648 | 26 | 89 | 1.6 | 3.2 | 0.00 | 0.00 | 0.00 | 82 | 1012.6 |
| 20260905061148 | 26 | 46 | 0.0 | 1.6 | 0.00 | 0.00 | 0.00 | 82 | 1012.7 |
| 20260905060648 | 26 | 46 | 0.0 | 1.6 | 0.00 | 0.00 | 0.00 | 82 | 1012.7 |
| 20260905060148 | 26 | 269 | 1.6 | 1.6 | 0.00 | 0.00 | 0.00 | 82 | 1012.7 |
| 20260905055648 | 26 | 1 | 1.6 | 3.2 | 0.00 | 0.00 | 0.00 | 82 | 1012.7 |
| 20260905055148 | 26 | 1 | 1.6 | 3.2 | 0.00 | 0.00 | 0.00 | 82 | 1012.7 |
| 20260905054648 | 26 | 1 | 1.6 | 1.6 | 0.00 | 0.00 | 0.00 | 82 | 1012.6 |
| 20260905054148 | 26 | 269 | 1.6 | 1.6 | 0.00 | 0.00 | 0.00 | 82 | 1012.7 |
| 20260905053648 | 26 | 46 | 1.6 | 3.2 | 0.00 | 0.00 | 0.00 | 81 | 1012.7 |
| 20260905053148 | 27 | 269 | 0.0 | 3.2 | 0.00 | 0.00 | 0.00 | 81 | 1012.7 |
| 20260905052648 | 27 | 178 | 0.0 | 1.6 | 0.00 | 0.00 | 0.00 | 80 | 1012.8 |
| 20260905052148 | 27 | 89 | 1.6 | 1.6 | 0.00 | 0.00 | 0.00 | 80 | 1012.8 |
| 20260905051648 | 27 | 135 | 1.6 | 3.2 | 0.00 | 0.00 | 0.00 | 80 | 1012.7 |
| 20260905051148 | 27 | 139 | 1.6 | 3.2 | 0.00 | 0.00 | 0.00 | 80 | 1012.7 |
| 20260905050648 | 27 | 135 | 0.0 | 1.6 | 0.00 | 0.00 | 0.00 | 80 | 1012.8 |
| 20260905050148 | 27 | 46 | 0.0 | 1.6 | 0.00 | 0.00 | 0.00 | 80 | 1012.8 |
| 20260905045648 | 27 | 46 | 0.0 | 1.6 | 0.00 | 0.00 | 0.00 | 79 | 1012.8 |
| 20260905045148 | 27 | 46 | 0.0 | 1.6 | 0.00 | 0.00 | 0.00 | 79 | 1012.8 |
| 20260905044648 | 27 | 46 | 0.0 | 1.6 | 0.00 | 0.00 | 0.00 | 78 | 1012.9 |
| 20260905044148 | 27 | 1 | 0.0 | 3.2 | 0.00 | 0.00 | 0.00 | 77 | 1012.9 |
| 20260905043648 | 27 | 331 | 1.6 | 3.2 | 0.00 | 0.00 | 0.00 | 75 | 1012.9 |
| 20260905043148 | 28 | 135 | 1.6 | 3.2 | 0.00 | 0.00 | 0.00 | 75 | 1012.9 |
| 20260905042648 | 28 | 46 | 1.6 | 3.2 | 0.00 | 0.00 | 0.00 | 74 | 1012.8 |
| 20260905042148 | 28 | 178 | 1.6 | 3.2 | 0.00 | 0.00 | 0.00 | 74 | 1012.8 |
| 20260905041648 | 28 | 178 | 1.6 | 3.2 | 0.00 | 0.00 | 0.00 | 74 | 1012.8 |
| 20260905041148 | 28 | 89 | 1.6 | 3.2 | 0.00 | 0.00 | 0.00 | 74 | 1012.9 |
| 20260905040648 | 28 | 135 | 1.6 | 3.2 | 0.00 | 0.00 | 0.00 | 74 | 1012.9 |
| 20260905040148 | 28 | 124 | 1.6 | 3.2 | 0.00 | 0.00 | 0.00 | 74 | 1012.9 |
| 20260905035648 | 28 | 117 | 1.6 | 3.2 | 0.00 | 0.00 | 0.00 | 75 | 1012.9 |
| 20260905035148 | 28 | 89 | 1.6 | 3.2 | 0.00 | 0.00 | 0.00 | 76 | 1012.8 |
| 20260905034649 | 28 | 46 | 1.6 | 3.2 | 0.00 | 0.00 | 0.00 | 75 | 1012.9 |
| 20260905034148 | 28 | 135 | 1.6 | 3.2 | 0.00 | 0.00 | 0.00 | 73 | 1012.9 |
| 20260905033648 | 28 | 178 | 1.6 | 3.2 | 0.00 | 0.00 | 0.00 | 74 | 1012.8 |
| 20260905033148 | 28 | 117 | 1.6 | 3.2 | 0.00 | 0.00 | 0.00 | 74 | 1012.9 |
| 20260905032648 | 28 | 108 | 1.6 | 3.2 | 0.00 | 0.00 | 0.00 | 75 | 1012.8 |
| 20260905032148 | 28 | 178 | 1.6 | 3.2 | 0.00 | 0.00 | 0.00 | 75 | 1012.9 |
| 20260905031648 | 28 | 89 | 1.6 | 3.2 | 0.00 | 0.00 | 0.00 | 75 | 1012.9 |
| 20260905031148 | 28 | 46 | 1.6 | 3.2 | 0.00 | 0.00 | 0.00 | 75 | 1013.0 |
| 20260905030648 | 28 | 178 | 1.6 | 3.2 | 0.00 | 0.00 | 0.00 | 75 | 1012.9 |
| 20260905030148 | 28 | 314 | 1.6 | 1.6 | 0.00 | 0.00 | 0.00 | 74 | 1012.8 |
| 20260905025648 | 28 | 1 | 1.6 | 1.6 | 0.00 | 0.00 | 0.00 | 74 | 1012.9 |
| 20260905025148 | 28 | 178 | 0.0 | 1.6 | 0.00 | 0.00 | 0.00 | 75 | 1012.8 |
| 20260905024648 | 28 | 1 | 0.0 | 1.6 | 0.00 | 0.00 | 0.00 | 74 | 1012.8 |
| 20260905024148 | 28 | 89 | 1.6 | 3.2 | 0.00 | 0.00 | 0.00 | 73 | 1012.9 |
| 20260905023648 | 29 | 178 | 1.6 | 3.2 | 0.00 | 0.00 | 0.00 | 72 | 1012.9 |
| 20260905023148 | 29 | 135 | 1.6 | 3.2 | 0.00 | 0.00 | 0.00 | 72 | 1012.9 |
| 20260905022648 | 29 | 135 | 0.0 | 3.2 | 0.00 | 0.00 | 0.00 | 72 | 1012.9 |
| 20260905022148 | 28 | 178 | 0.0 | 3.2 | 0.00 | 0.00 | 0.00 | 74 | 1012.8 |
| 20260905021648 | 28 | 269 | 0.0 | 1.6 | 0.00 | 0.00 | 0.00 | 74 | 1012.8 |
| 20260905021148 | 28 | 46 | 0.0 | 1.6 | 0.00 | 0.00 | 0.00 | 74 | 1012.7 |
| 20260905020648 | 28 | 46 | 0.0 | 1.6 | 0.00 | 0.00 | 0.00 | 73 | 1012.8 |
| 20260905020148 | 28 | 46 | 1.6 | 1.6 | 0.00 | 0.00 | 0.00 | 73 | 1012.7 |
| 20260905015648 | 29 | 314 | 0.0 | 3.2 | 0.00 | 0.00 | 0.00 | 73 | 1012.6 |
| 20260905015148 | 29 | 269 | 0.0 | 1.6 | 0.00 | 0.00 | 0.00 | 72 | 1012.6 |
| 20260905014648 | 29 | 1 | 1.6 | 1.6 | 0.00 | 0.00 | 0.00 | 71 | 1012.5 |
| 20260905014148 | 29 | 296 | 1.6 | 3.2 | 0.00 | 0.00 | 0.00 | 70 | 1012.5 |
| 20260905013648 | 30 | 72 | 1.6 | 3.2 | 0.00 | 0.00 | 0.00 | 70 | 1012.5 |
| 20260905013148 | 30 | 178 | 1.6 | 3.2 | 0.00 | 0.00 | 0.00 | 69 | 1012.4 |
| 20260905012648 | 30 | 135 | 1.6 | 3.2 | 0.00 | 0.00 | 0.00 | 68 | 1012.4 |
| 20260905012148 | 30 | 135 | 1.6 | 3.2 | 0.00 | 0.00 | 0.00 | 67 | 1012.4 |
| 20260905011648 | 30 | 117 | 1.6 | 3.2 | 0.00 | 0.00 | 0.00 | 68 | 1012.3 |
| 20260905011148 | 30 | 223 | 1.6 | 3.2 | 0.00 | 0.00 | 0.00 | 67 | 1012.2 |
| 20260905010648 | 30 | 89 | 0.0 | 3.2 | 0.00 | 0.00 | 0.00 | 66 | 1012.2 |
| 20260905010148 | 30 | 89 | 1.6 | 1.6 | 0.00 | 0.00 | 0.00 | 66 | 1012.1 |
| 20260905005648 | 31 | 89 | 1.6 | 3.2 | 0.00 | 0.00 | 0.00 | 66 | 1012.0 |
| 20260905005148 | 31 | 46 | 1.6 | 3.2 | 0.00 | 0.00 | 0.00 | 65 | 1012.1 |
| 20260905004648 | 31 | 1 | 1.6 | 3.2 | 0.00 | 0.00 | 0.00 | 63 | 1012.0 |
| 20260905004148 | 31 | 89 | 1.6 | 3.2 | 0.00 | 0.00 | 0.00 | 63 | 1012.0 |
| 20260905003648 | 31 | 46 | 0.0 | 3.2 | 0.00 | 0.00 | 0.00 | 62 | 1012.0 |
| 20260905003148 | 32 | 135 | 0.0 | 1.6 | 0.00 | 0.00 | 0.00 | 61 | 1011.9 |
| 20260905002648 | 32 | 108 | 1.6 | 3.2 | 0.00 | 0.00 | 0.00 | 60 | 1011.9 |
| 20260905002148 | 32 | 135 | 1.6 | 3.2 | 0.00 | 0.00 | 0.00 | 59 | 1011.9 |
| 20260905001649 | 32 | 152 | 1.6 | 4.8 | 0.00 | 0.00 | 0.00 | 58 | 1011.9 |
| 20260905001148 | 32 | 89 | 1.6 | 3.2 | 0.00 | 0.00 | 0.00 | 58 | 1011.9 |
| 20260905000649 | 33 | 89 | 1.6 | 3.2 | 0.00 | 0.00 | 0.00 | 57 | 1011.8 |
| 20260905000148 | 33 | 135 | 1.6 | 3.2 | 0.00 | 0.00 | 0.00 | 56 | 1011.8 |
| 20260904235649 | 33 | 135 | 1.6 | 3.2 | 0.00 | 0.00 | 0.00 | 55 | 1011.8 |
| 20260904235149 | 33 | 89 | 1.6 | 3.2 | 0.00 | 0.00 | 0.00 | 55 | 1011.9 |
| 20260904234649 | 34 | 89 | 1.6 | 3.2 | 0.00 | 0.00 | 0.00 | 54 | 1011.8 |
| 20260904234149 | 34 | 124 | 1.6 | 3.2 | 0.00 | 0.00 | 0.00 | 52 | 1011.9 |
| 20260904233649 | 35 | 178 | 1.6 | 3.2 | 0.00 | 0.00 | 0.00 | 52 | 1012.0 |
| 20260904233149 | 35 | 178 | 3.2 | 6.4 | 0.00 | 0.00 | 0.00 | 50 | 1011.9 |
| 20260904232649 | 35 | 74 | 3.2 | 6.4 | 0.00 | 0.00 | 0.00 | 49 | 1012.0 |
| 20260904232149 | 35 | 89 | 1.6 | 6.4 | 0.00 | 0.00 | 0.00 | 48 | 1011.9 |
| 20260904231649 | 35 | 102 | 3.2 | 4.8 | 0.00 | 0.00 | 0.00 | 49 | 1011.9 |
| 20260904231149 | 35 | 105 | 3.2 | 4.8 | 0.00 | 0.00 | 0.00 | 48 | 1011.9 |
| 20260904230649 | 36 | 120 | 3.2 | 6.4 | 0.00 | 0.00 | 0.00 | 47 | 1011.9 |
| 20260904230149 | 35 | 46 | 3.2 | 4.8 | 0.00 | 0.00 | 0.00 | 48 | 1011.8 |
| 20260904225649 | 35 | 68 | 3.2 | 4.8 | 0.00 | 0.00 | 0.00 | 48 | 1011.8 |
| 20260904225149 | 35 | 89 | 3.2 | 4.8 | 0.00 | 0.00 | 0.00 | 48 | 1011.8 |
| 20260904224649 | 36 | 89 | 3.2 | 4.8 | 0.00 | 0.00 | 0.00 | 48 | 1011.7 |
| 20260904224149 | 36 | 110 | 3.2 | 6.4 | 0.00 | 0.00 | 0.00 | 47 | 1011.7 |
| 20260904223649 | 36 | 167 | 3.2 | 4.8 | 0.00 | 0.00 | 0.00 | 46 | 1011.7 |
| 20260904223149 | 36 | 82 | 3.2 | 6.4 | 0.00 | 0.00 | 0.00 | 47 | 1011.6 |
| 20260904222649 | 36 | 140 | 3.2 | 6.4 | 0.00 | 0.00 | 0.00 | 48 | 1011.7 |
| 20260904222149 | 36 | 67 | 1.6 | 6.4 | 0.00 | 0.00 | 0.00 | 48 | 1011.7 |
| 20260904221649 | 36 | 117 | 1.6 | 8.0 | 0.00 | 0.00 | 0.00 | 46 | 1011.6 |
| 20260904221149 | 37 | 18 | 1.6 | 4.8 | 0.00 | 0.00 | 0.00 | 43 | 1011.7 |
| 20260904220649 | 37 | 216 | 1.6 | 6.4 | 0.00 | 0.00 | 0.00 | 44 | 1011.7 |
| 20260904220149 | 37 | 74 | 3.2 | 8.0 | 0.00 | 0.00 | 0.00 | 42 | 1011.7 |
| 20260904215649 | 37 | 1 | 3.2 | 8.0 | 0.00 | 0.00 | 0.00 | 42 | 1011.7 |
| 20260904215149 | 37 | 46 | 3.2 | 11.3 | 0.00 | 0.00 | 0.00 | 43 | 1011.8 |
| 20260904214649 | 37 | 286 | 1.6 | 4.8 | 0.00 | 0.00 | 0.00 | 41 | 1011.8 |
| 20260904214149 | 37 | 178 | 1.6 | 3.2 | 0.00 | 0.00 | 0.00 | 43 | 1011.9 |
| 20260904213649 | 37 | 231 | 3.2 | 6.4 | 0.00 | 0.00 | 0.00 | 43 | 1011.9 |
| 20260904213149 | 37 | 178 | 3.2 | 4.8 | 0.00 | 0.00 | 0.00 | 43 | 1012.0 |
| 20260904212649 | 38 | 269 | 3.2 | 8.0 | 0.00 | 0.00 | 0.00 | 42 | 1012.0 |
| 20260904212149 | 37 | 89 | 3.2 | 8.0 | 0.00 | 0.00 | 0.00 | 43 | 1012.1 |
| 20260904211649 | 37 | 276 | 3.2 | 8.0 | 0.00 | 0.00 | 0.00 | 43 | 1012.1 |
| 20260904211149 | 37 | 63 | 3.2 | 6.4 | 0.00 | 0.00 | 0.00 | 43 | 1012.2 |
| 20260904210649 | 37 | 162 | 4.8 | 9.7 | 0.00 | 0.00 | 0.00 | 41 | 1012.3 |
| 20260904210149 | 37 | 72 | 3.2 | 8.0 | 0.00 | 0.00 | 0.00 | 43 | 1012.2 |
| 20260904205649 | 37 | 336 | 3.2 | 6.4 | 0.00 | 0.00 | 0.00 | 42 | 1012.2 |